COSMOS 831

导读

COSMOS 831隶属于苏联/独联体(CIS)著名的“宇宙”号卫星系列,于1976年6月15日发射入轨。“宇宙”号是世界上规模最大的卫星系列,涵盖军用侦察、空间探测等多类任务,多数卫星承担军事用途,同时也纳入科学试验任务。该卫星具体任务未公开披露,推测大概率为军用侦察或是空间物理探测任务,是苏联冷战航天布局中的一颗典型卫星。

基本信息
目录编号:
8895
目录名称:
COSMOS 831
国际标识:
1976-054G
轨道中心:
EARTH
卫星名称:
COSMOS 831
卫星全名:
--
卫星状态:
在轨 (已飞行18352 天)
发射日期:
1976-06-15 UTC
国别 :
俄罗斯(独联体) (CIS)
星等 :
--
该卫星已列入 空间交会检测服务 Space Conjunction Data Service (SCDS) ,当前飞行风险评估等级: 无高风险
轨道信息
数据来源 国际轨道数据 AOE轨道数据
星历时间 2026-09-13T08:03:59+0800
6小时前
查看轨道信息
2026-09-11T00:00:00+0800
2天前
查看轨道信息
半长轴 7868.889km 7868.892km
偏心率 0.0020735 0.0020715
轨道倾角 73.997° 73.997°
近地点辐角 1.368° 4.807°
升交点赤经 91.344° 94.418°
平近点角 166.622° 146.761°
近地点 1474.435km 1474.454km
远地点 1507.069km 1507.056km
周期 115.779分钟 115.779分钟
每日圈数 12.437489 12.437481
详细信息
使用方式:
暂无
2D轨道图
3D轨道图
轨道高度分析图
轨道倾角分析图
轨道综合分析图
查看轨道综合分析图
交会数据列表
事件ID 空间交会对象 最接近时刻(TCA) 交会距离 交会风险概率(CRP) 交会风险指数(CRI) 操作
CDM_260911-150000-555300-889527
2026-09-11T
15:00:33+0000
2.968 km
极远距离
1.237063E-6 低风险 0.37
与全量物体交会距离演化趋势
与全量物体交会风险概率演化趋势